EWG5MU EDDH-EGLL

Flight info

Callsign EWG5MU
Flight time N/A
Altitude 36000
Route WSN5G/33 WSN N125 ITMIZ DCT ABNED L980 LOGAN
Aircraft A320/M-SDE3FGHIRWY/LB1

Departure

Time 2026-04-30 19:36
Airport Hamburg Helmut Schmidt Airport (EDDH)

Arrival

Time N/A
Airport London Heathrow Airport (EGLL)
Time Latitude Longitude Altitude Speed Heading
2026-04-30 18:51 53.63373 10.00345 49 ft 0 kts 86°
2026-04-30 19:19 53.63373 10.00340 48 ft 3 kts 86°
2026-04-30 19:20 53.63371 10.00295 43 ft 4 kts 86°
2026-04-30 19:20 53.63369 10.00260 47 ft 4 kts 97°
2026-04-30 19:20 53.63394 10.00225 48 ft 4 kts 176°
2026-04-30 19:21 53.63401 10.00224 48 ft 0 kts 176°
2026-04-30 19:22 53.63347 10.00231 46 ft 15 kts 176°
2026-04-30 19:23 53.63057 10.00248 48 ft 11 kts 203°
2026-04-30 19:24 53.62944 10.00129 48 ft 8 kts 213°
2026-04-30 19:24 53.62940 10.00125 48 ft 0 kts 213°
2026-04-30 19:25 53.62931 10.00115 48 ft 6 kts 212°
2026-04-30 19:26 53.62870 10.00035 48 ft 0 kts 238°
2026-04-30 19:31 53.62865 10.00022 48 ft 8 kts 238°
2026-04-30 19:31 53.62842 9.99952 46 ft 0 kts 243°
2026-04-30 19:33 53.62841 9.99948 46 ft 3 kts 243°
2026-04-30 19:33 53.62805 9.99818 43 ft 10 kts 262°
2026-04-30 19:34 53.62827 9.99779 45 ft 0 kts 333°
2026-04-30 19:35 53.62841 9.99767 45 ft 13 kts 333°
2026-04-30 19:36 53.63174 9.99480 46 ft 90 kts 333°
2026-04-30 19:36 53.63918 9.98838 50 ft 147 kts 333°
2026-04-30 19:36 53.65896 9.97186 1166 ft 158 kts 335°
2026-04-30 19:37 53.66914 9.96319 1626 ft 173 kts 335°
2026-04-30 19:37 53.68057 9.95344 1943 ft 195 kts 334°
2026-04-30 19:37 53.69338 9.94247 2250 ft 216 kts 334°
2026-04-30 19:37 53.70661 9.92994 2920 ft 223 kts 321°
2026-04-30 19:38 53.71476 9.90792 3671 ft 230 kts 281°
2026-04-30 19:38 53.71384 9.88000 4048 ft 252 kts 255°
2026-04-30 19:38 53.70863 9.85047 4589 ft 269 kts 249°
2026-04-30 19:38 53.70214 9.82031 5383 ft 277 kts 248°
2026-04-30 19:39 53.69530 9.78954 6181 ft 283 kts 248°
2026-04-30 19:39 53.68843 9.75800 7005 ft 290 kts 249°
2026-04-30 19:39 53.68165 9.72559 7785 ft 295 kts 250°
2026-04-30 19:39 53.67497 9.69268 8599 ft 299 kts 250°
2026-04-30 19:40 53.66830 9.65925 9432 ft 302 kts 251°
2026-04-30 19:40 53.66162 9.62544 10254 ft 306 kts 251°
2026-04-30 19:40 53.65442 9.59113 10831 ft 318 kts 246°
2026-04-30 19:40 53.64347 9.55725 11065 ft 340 kts 234°
2026-04-30 19:41 53.62929 9.52429 11542 ft 352 kts 232°
2026-04-30 19:41 53.61476 9.49064 12234 ft 358 kts 232°
2026-04-30 19:41 53.59998 9.45641 12910 ft 364 kts 232°
2026-04-30 19:41 53.58504 9.42176 13593 ft 368 kts 232°
2026-04-30 19:42 53.57010 9.38711 14254 ft 373 kts 232°
2026-04-30 19:42 53.55478 9.35155 14846 ft 377 kts 232°
2026-04-30 19:42 53.53933 9.31570 15488 ft 380 kts 232°
2026-04-30 19:42 53.52372 9.27953 16139 ft 383 kts 232°
2026-04-30 19:43 53.50800 9.24324 16755 ft 386 kts 232°
2026-04-30 19:43 53.49213 9.20661 17375 ft 389 kts 232°
2026-04-30 19:43 53.47615 9.16972 17980 ft 393 kts 233°
2026-04-30 19:44 53.44371 9.09501 19110 ft 399 kts 233°
2026-04-30 19:44 53.42726 9.05732 19641 ft 402 kts 233°
2026-04-30 19:44 53.41064 9.01934 20156 ft 404 kts 233°
2026-04-30 19:44 53.39394 8.98120 20702 ft 407 kts 233°
2026-04-30 19:45 53.37712 8.94282 21189 ft 410 kts 233°
2026-04-30 19:45 53.36019 8.90414 21697 ft 413 kts 234°
2026-04-30 19:45 53.34545 8.86277 22169 ft 416 kts 245°
2026-04-30 19:45 53.33477 8.81842 22660 ft 417 kts 251°
2026-04-30 19:46 53.32476 8.77265 23160 ft 420 kts 251°
2026-04-30 19:46 53.31463 8.72667 23644 ft 422 kts 250°
2026-04-30 19:46 53.30445 8.68070 24139 ft 423 kts 250°
2026-04-30 19:46 53.29419 8.63450 24361 ft 424 kts 250°
2026-04-30 19:47 53.28401 8.58831 24421 ft 423 kts 251°